GW2953 Weather Reports


Display with metric or nautical units.
time (UTC)temp
F
wind
direction
speed
MPH
gust
MPH
rain 1hr
in
rain 24hr
in
rain mn
in
humidity
%
barometer
mb
20260831030658 78 271 2.0 3.0 0.00 0.00 0.00 27 1011.6
20260831030157 77 314 3.0 6.0 0.00 0.00 0.00 27 1011.6
20260831025655 78 279 3.0 6.0 0.00 0.00 0.00 26 1011.6
20260831025150 78 294 4.0 9.0 0.00 0.00 0.00 27 1011.8
20260831024648 78 282 5.0 8.0 0.00 0.00 0.00 27 1011.6
20260831024145 78 263 9.0 11.0 0.00 0.00 0.00 26 1011.2
20260831023644 79 293 2.0 10.0 0.00 0.00 0.00 26 1011.2
20260831023137 79 280 10.0 10.0 0.00 0.00 0.00 26 1011.2
20260831022632 79 273 9.0 11.0 0.00 0.00 0.00 26 1011.2
20260831022127 80 269 7.0 12.0 0.00 0.00 0.00 26 1011.3
20260831021626 80 233 2.0 7.0 0.00 0.00 0.00 25 1011.3
20260831021122 80 277 5.0 8.0 0.00 0.00 0.00 26 1011.4
20260831020618 82 296 2.0 9.0 0.00 0.00 0.00 23 1011.4
20260831020113 80 292 4.0 8.0 0.00 0.00 0.00 25 1011.3
20260831015609 80 276 4.0 8.0 0.00 0.00 0.00 25 1011.5
20260831015108 80 253 6.0 9.0 0.00 0.00 0.00 26 1011.5
20260831014603 81 267 5.0 8.0 0.00 0.00 0.00 25 1011.6
20260831014058 80 293 6.0 7.0 0.00 0.00 0.00 25 1011.6
20260831013555 80 278 7.0 11.0 0.00 0.00 0.00 26 1011.4
20260831013054 83 261 9.0 9.0 0.00 0.00 0.00 25 1011.4
20260831012554 82 280 4.0 7.0 0.00 0.00 0.00 23 1011.6
20260831012049 81 263 4.0 9.0 0.00 0.00 0.00 26 1011.6
20260831011548 84 273 5.0 5.0 0.00 0.00 0.00 24 1011.5
20260831011044 84 243 8.0 8.0 0.00 0.00 0.00 22 1011.5
20260831010539 86 246 5.0 6.0 0.00 0.00 0.00 24 1011.5
20260831010036 89 295 1.0 5.0 0.00 0.00 0.00 20 1011.4
20260831005530 88 232 2.0 5.0 0.00 0.00 0.00 21 1011.6
20260831005030 89 222 0.0 7.0 0.00 0.00 0.00 22 1011.6
20260831004526 89 266 3.0 7.0 0.00 0.00 0.00 20 1011.5
20260831004021 89 242 5.0 11.0 0.00 0.00 0.00 20 1011.6
20260831003518 90 234 6.0 8.0 0.00 0.00 0.00 19 1011.4
20260831003013 90 207 3.0 6.0 0.00 0.00 0.00 19 1011.5
20260831002512 89 262 4.0 11.0 0.00 0.00 0.00 20 1011.6
20260831002007 89 239 7.0 11.0 0.00 0.00 0.00 19 1011.7
20260831001502 90 253 3.0 11.0 0.00 0.00 0.00 19 1011.5
20260831000959 91 236 4.0 8.0 0.00 0.00 0.00 19 1011.7
20260831000454 91 272 3.0 7.0 0.00 0.00 0.00 20 1011.5
20260830235952 92 245 4.0 13.0 0.00 0.00 0.00 19 1011.6
20260830235448 92 63 2.0 4.0 0.00 0.00 0.00 19 1011.6
20260830234943 91 225 2.0 8.0 0.00 0.00 0.00 19 1011.6
20260830234438 90 178 5.0 13.0 0.00 0.00 0.00 20 1011.6
20260830233934 89 108 5.0 8.0 0.00 0.00 0.00 21 1011.7
20260830233429 89 85 4.0 7.0 0.00 0.00 0.00 20 1011.7
20260830232925 89 59 3.0 8.0 0.00 0.00 0.00 19 1011.7
20260830232420 90 166 5.0 10.0 0.00 0.00 0.00 19 1011.7
20260830231917 91 256 3.0 7.0 0.00 0.00 0.00 19 1011.9
20260830231412 91 117 2.0 5.0 0.00 0.00 0.00 19 1011.7
20260830230911 90 141 3.0 7.0 0.00 0.00 0.00 20 1011.5
20260830230407 90 93 4.0 8.0 0.00 0.00 0.00 19 1011.9
20260830225906 90 70 3.0 9.0 0.00 0.00 0.00 20 1011.7
20260830225401 92 136 5.0 6.0 0.00 0.00 0.00 20 1011.9
20260830224856 93 229 3.0 5.0 0.00 0.00 0.00 17 1011.8
20260830224355 92 186 3.0 5.0 0.00 0.00 0.00 19 1011.9
20260830223852 93 184 3.0 4.0 0.00 0.00 0.00 18 1012.2
20260830223348 90 191 2.0 4.0 0.00 0.00 0.00 18 1012.0
20260830222847 91 250 5.0 6.0 0.00 0.00 0.00 18 1012.2
20260830222342 90 152 3.0 7.0 0.00 0.00 0.00 19 1012.2
20260830221838 91 150 4.0 9.0 0.00 0.00 0.00 20 1012.3
20260830221335 91 187 9.0 11.0 0.00 0.00 0.00 19 1012.3
20260830220830 90 265 3.0 9.0 0.00 0.00 0.00 20 1012.4
20260830220329 89 274 3.0 8.0 0.00 0.00 0.00 20 1012.6
20260830215827 89 247 3.0 11.0 0.00 0.00 0.00 20 1012.4
20260830215322 89 283 4.0 7.0 0.00 0.00 0.00 20 1012.6
20260830214817 89 192 4.0 13.0 0.00 0.00 0.00 21 1012.6
20260830214312 90 184 5.0 8.0 0.00 0.00 0.00 21 1012.8
20260830213812 89 229 7.0 9.0 0.00 0.00 0.00 21 1012.9
20260830213307 89 154 2.0 12.0 0.00 0.00 0.00 22 1012.9
20260830212803 89 122 4.0 12.0 0.00 0.00 0.00 23 1013.0
20260830212259 90 181 2.0 10.0 0.00 0.00 0.00 22 1013.0
20260830211757 90 244 0.0 5.0 0.00 0.00 0.00 22 1012.9
20260830211256 89 280 2.0 6.0 0.00 0.00 0.00 22 1012.6
20260830210753 89 221 5.0 13.0 0.00 0.00 0.00 22 1013.1
20260830210252 89 179 5.0 10.0 0.00 0.00 0.00 22 1013.2
20260830205749 89 177 4.0 8.0 0.00 0.00 0.00 22 1013.1
20260830205244 89 205 6.0 11.0 0.00 0.00 0.00 22 1013.1
20260830204740 90 178 5.0 9.0 0.00 0.00 0.00 22 1013.1
20260830204238 89 105 0.0 5.0 0.00 0.00 0.00 23 1013.2
20260830203735 89 160 1.0 6.0 0.00 0.00 0.00 22 1013.3
20260830203230 89 115 4.0 6.0 0.00 0.00 0.00 23 1013.2
20260830202730 88 340 2.0 4.0 0.00 0.00 0.00 23 1013.2
20260830202225 89 325 0.0 10.0 0.00 0.00 0.00 23 1013.3
20260830201724 87 318 2.0 8.0 0.00 0.00 0.00 23 1013.4
20260830201220 88 126 4.0 9.0 0.00 0.00 0.00 23 1013.3
20260830200715 87 89 6.0 9.0 0.00 0.00 0.00 24 1013.3
20260830200214 87 171 6.0 12.0 0.00 0.00 0.00 23 1013.4
20260830195710 87 135 2.0 7.0 0.00 0.00 0.00 24 1013.4
20260830195208 87 117 7.0 10.0 0.00 0.00 0.00 24 1013.2
20260830194702 87 113 4.0 7.0 0.00 0.00 0.00 24 1013.4
20260830194201 86 101 3.0 9.0 0.00 0.00 0.00 25 1013.4
20260830193656 86 185 0.0 10.0 0.00 0.00 0.00 24 1013.5
20260830193156 88 114 5.0 6.0 0.00 0.00 0.00 24 1013.4
20260830192651 86 326 2.0 7.0 0.00 0.00 0.00 25 1013.4
20260830192146 86 70 3.0 6.0 0.00 0.00 0.00 24 1013.4
20260830191643 86 82 3.0 6.0 0.00 0.00 0.00 25 1013.5
20260830191137 85 348 4.0 5.0 0.00 0.00 0.00 25 1013.6
20260830190632 86 177 4.0 10.0 0.00 0.00 0.00 25 1013.6
20260830190128 85 215 2.0 4.0 0.00 0.00 0.00 25 1013.6
20260830185626 84 188 3.0 8.0 0.00 0.00 0.00 24 1013.8
20260830185122 85 242 4.0 7.0 0.00 0.00 0.00 24 1013.6
20260830184621 86 205 4.0 6.0 0.00 0.00 0.00 24 1013.8
20260830184116 86 160 3.0 5.0 0.00 0.00 0.00 25 1013.8
20260830183611 85 189 1.0 3.0 0.00 0.00 0.00 25 1013.8
20260830183106 83 183 3.0 7.0 0.00 0.00 0.00 26 1013.8
20260830182601 83 145 1.0 5.0 0.00 0.00 0.00 26 1014.0
20260830182057 82 286 3.0 4.0 0.00 0.00 0.00 26 1013.9
20260830181553 82 225 4.0 5.0 0.00 0.00 0.00 27 1013.9
20260830181047 83 235 0.0 6.0 0.00 0.00 0.00 26 1013.9
20260830180547 83 126 2.0 6.0 0.00 0.00 0.00 27 1013.8
20260830180046 83 80 3.0 6.0 0.00 0.00 0.00 27 1014.1
20260830175545 82 203 0.0 6.0 0.00 0.00 0.00 29 1014.0
20260830175041 81 147 3.0 4.0 0.00 0.00 0.00 28 1013.9
20260830174536 81 97 4.0 8.0 0.00 0.00 0.00 28 1014.1
20260830174031 82 125 6.0 7.0 0.00 0.00 0.00 26 1014.1
20260830173527 81 106 3.0 9.0 0.00 0.00 0.00 29 1014.1
20260830173021 81 123 4.0 7.0 0.00 0.00 0.00 29 1014.0
20260830172519 80 154 2.0 6.0 0.00 0.00 0.00 29 1014.1
20260830172015 79 108 2.0 7.0 0.00 0.00 0.00 30 1014.1
20260830171509 79 76 6.0 7.0 0.00 0.00 0.00 31 1014.1
20260830171009 78 68 3.0 5.0 0.00 0.00 0.00 33 1014.2
20260830170509 78 101 4.0 6.0 0.00 0.00 0.00 33 1014.4
20260830170008 77 95 3.0 6.0 0.00 0.00 0.00 32 1014.3
20260830165504 76 113 4.0 6.0 0.00 0.00 0.00 34 1014.2
20260830164959 76 17 2.0 5.0 0.00 0.00 0.00 35 1014.5
20260830164455 75 144 2.0 3.0 0.00 0.00 0.00 35 1014.7
20260830163951 74 140 1.0 4.0 0.00 0.00 0.00 36 1014.5
20260830163448 73 108 1.0 5.0 0.00 0.00 0.00 37 1014.4
20260830162947 73 69 1.0 2.0 0.00 0.00 0.00 38 1014.5
20260830162443 71 124 2.0 7.0 0.00 0.00 0.00 40 1014.9
20260830161937 71 86 3.0 5.0 0.00 0.00 0.00 39 1014.9
20260830161431 71 53 2.0 3.0 0.00 0.00 0.00 40 1015.0
20260830160926 70 101 0.0 2.0 0.00 0.00 0.00 42 1015.0
20260830160423 68 244 0.0 2.0 0.00 0.00 0.00 43 1014.9
20260830155918 68 50 0.0 3.0 0.00 0.00 0.00 43 1015.0
20260830155414 65 105 2.0 3.0 0.00 0.00 0.00 46 1015.1
20260830154909 65 156 2.0 4.0 0.00 0.00 0.00 46 1015.1
20260830154405 63 166 0.0 1.0 0.00 0.00 0.00 49 1015.1
20260830153901 63 152 0.0 3.0 0.00 0.00 0.00 48 1015.3
20260830153356 63 180 0.0 2.0 0.00 0.00 0.00 48 1015.3
20260830152855 64 153 1.0 3.0 0.00 0.00 0.00 48 1015.1
20260830152350 62 34 0.0 1.0 0.00 0.00 0.00 50 1015.3
20260830151844 60 269 0.0 2.0 0.00 0.00 0.00 52 1015.1
20260830151343 60 87 2.0 3.0 0.00 0.00 0.00 53 1015.0
20260830150839 57 166 1.0 2.0 0.00 0.00 0.00 56 1015.1
20260830150338 57 147 1.0 3.0 0.00 0.00 0.00 56 1015.3
20260830145833 59 182 0.0 2.0 0.00 0.00 0.00 54 1015.3
20260830145328 57 147 1.0 3.0 0.00 0.00 0.00 57 1015.2
20260830144823 57 228 0.0 1.0 0.00 0.00 0.00 57 1015.1
20260830144319 57 38 0.0 1.0 0.00 0.00 0.00 58 1015.2
20260830143815 56 107 0.0 2.0 0.00 0.00 0.00 58 1015.1
20260830143315 55 125 1.0 3.0 0.00 0.00 0.00 59 1015.3
20260830142809 54 199 1.0 3.0 0.00 0.00 0.00 62 1015.3
20260830142306 53 195 0.0 4.0 0.00 0.00 0.00 64 1015.0
20260830141759 52 269 1.0 3.0 0.00 0.00 0.00 65 1015.0
20260830141254 52 118 1.0 3.0 0.00 0.00 0.00 65 1015.1
20260830140749 53 76 0.0 2.0 0.00 0.00 0.00 65 1015.1
20260830140248 52 271 2.0 3.0 0.00 0.00 0.00 65 1015.1
20260830135743 52 137 0.0 2.0 0.00 0.00 0.00 65 1015.0
20260830135239 52 271 2.0 3.0 0.00 0.00 0.00 65 1014.9
20260830134735 53 167 0.0 2.0 0.00 0.00 0.00 65 1014.9
20260830134230 53 64 2.0 3.0 0.00 0.00 0.00 64 1015.1
20260830133725 53 284 3.0 4.0 0.00 0.00 0.00 63 1014.9
20260830133221 53 271 1.0 2.0 0.00 0.00 0.00 64 1014.9
20260830132716 53 217 0.0 2.0 0.00 0.00 0.00 64 1015.0
20260830132212 53 164 0.0 3.0 0.00 0.00 0.00 63 1014.9
20260830131711 53 318 2.0 2.0 0.00 0.00 0.00 66 1014.8
20260830131206 53 246 2.0 2.0 0.00 0.00 0.00 65 1014.8
20260830130700 53 89 1.0 2.0 0.00 0.00 0.00 63 1015.0
20260830130200 54 24 1.0 2.0 0.00 0.00 0.00 64 1014.9
20260830125654 54 138 2.0 2.0 0.00 0.00 0.00 62 1014.8
20260830125149 54 249 1.0 4.0 0.00 0.00 0.00 61 1015.0
20260830124647 53 251 2.0 3.0 0.00 0.00 0.00 62 1014.9
20260830124143 53 272 1.0 3.0 0.00 0.00 0.00 62 1014.9
20260830123635 53 271 2.0 3.0 0.00 0.00 0.00 62 1014.9
20260830123130 53 347 1.0 3.0 0.00 0.00 0.00 64 1014.8
20260830122627 54 165 0.0 3.0 0.00 0.00 0.00 62 1014.9
20260830122122 54 265 3.0 4.0 0.00 0.00 0.00 62 1014.7
20260830121618 54 45 2.0 3.0 0.00 0.00 0.00 61 1014.9
20260830121117 54 78 2.0 3.0 0.00 0.00 0.00 64 1014.8
20260830120612 53 304 2.0 3.0 0.00 0.00 0.00 64 1014.8
20260830120109 54 74 2.0 3.0 0.00 0.00 0.00 60 1014.8
20260830115604 55 89 0.0 2.0 0.00 0.00 0.00 59 1014.9
20260830115059 55 300 1.0 2.0 0.00 0.00 0.00 59 1014.9
20260830114556 54 49 2.0 3.0 0.00 0.00 0.00 59 1014.8
20260830114055 55 135 0.0 1.0 0.00 0.00 0.00 59 1015.0
20260830113551 54 269 0.0 2.0 0.00 0.00 0.00 58 1014.9
20260830113046 55 119 0.0 2.0 0.00 0.00 0.00 59 1015.0
20260830112542 55 296 2.0 4.0 0.00 0.00 0.00 58 1015.0
20260830112038 55 267 0.0 3.0 0.00 0.00 0.00 61 1014.9
20260830111538 55 75 0.0 2.0 0.00 0.00 0.00 59 1014.7
20260830111035 55 160 1.0 3.0 0.00 0.00 0.00 60 1015.0
20260830110535 55 27 3.0 3.0 0.00 0.00 0.00 58 1014.9
20260830110030 55 234 0.0 2.0 0.00 0.00 0.00 58 1014.9
20260830105525 55 265 1.0 3.0 0.00 0.00 0.00 57 1014.9
20260830105021 55 259 0.0 2.0 0.00 0.00 0.00 57 1015.0
20260830104517 55 261 2.0 3.0 0.00 0.00 0.00 58 1014.7
20260830104013 55 114 0.0 2.0 0.00 0.00 0.00 57 1014.8
20260830103508 55 88 3.0 3.0 0.00 0.00 0.00 56 1014.9
20260830103007 56 100 2.0 3.0 0.00 0.00 0.00 56 1014.8
20260830102501 56 330 0.0 1.0 0.00 0.00 0.00 55 1014.8
20260830101957 56 212 1.0 2.0 0.00 0.00 0.00 56 1015.0
20260830101453 56 191 0.0 3.0 0.00 0.00 0.00 56 1015.1
20260830100952 56 287 1.0 2.0 0.00 0.00 0.00 55 1014.9
20260830100447 56 129 0.0 3.0 0.00 0.00 0.00 57 1015.0
20260830095945 56 154 1.0 2.0 0.00 0.00 0.00 55 1015.1
20260830095441 56 337 0.0 3.0 0.00 0.00 0.00 55 1014.9
20260830094937 56 57 0.0 2.0 0.00 0.00 0.00 56 1014.8
20260830094433 57 137 1.0 2.0 0.00 0.00 0.00 54 1014.9
20260830093929 57 275 2.0 3.0 0.00 0.00 0.00 55 1014.9
20260830093424 57 310 0.0 3.0 0.00 0.00 0.00 53 1014.9
20260830092919 57 219 0.0 2.0 0.00 0.00 0.00 53 1014.9
20260830092415 57 263 1.0 3.0 0.00 0.00 0.00 54 1014.9
20260830091911 57 295 1.0 2.0 0.00 0.00 0.00 55 1014.9
20260830091406 57 91 1.0 2.0 0.00 0.00 0.00 54 1014.8
20260830090904 57 287 2.0 3.0 0.00 0.00 0.00 55 1015.0
20260830090359 57 287 2.0 3.0 0.00 0.00 0.00 55 1014.9
20260830085854 57 72 3.0 4.0 0.00 0.00 0.00 54 1014.9
20260830085349 57 287 3.0 4.0 0.00 0.00 0.00 55 1014.9
20260830084845 57 219 1.0 2.0 0.00 0.00 0.00 53 1015.0
20260830084340 58 64 3.0 3.0 0.00 0.00 0.00 53 1014.8
20260830083835 58 251 1.0 2.0 0.00 0.00 0.00 53 1015.0
20260830083331 59 53 3.0 3.0 0.00 0.00 0.00 51 1014.9
20260830082830 58 114 1.0 2.0 0.00 0.00 0.00 51 1014.9
20260830082325 58 44 0.0 3.0 0.00 0.00 0.00 51 1014.9
20260830081820 59 293 0.0 2.0 0.00 0.00 0.00 50 1014.9
20260830081315 59 256 1.0 3.0 0.00 0.00 0.00 52 1014.9
20260830080815 59 260 3.0 4.0 0.00 0.00 0.00 53 1014.9
20260830080312 59 269 0.0 3.0 0.00 0.00 0.00 51 1015.0
20260830075811 59 281 0.0 3.0 0.00 0.00 0.00 50 1014.9
20260830075307 60 82 0.0 2.0 0.00 0.00 0.00 49 1014.9
20260830074801 60 355 1.0 3.0 0.00 0.00 0.00 49 1014.9
20260830074257 60 77 2.0 3.0 0.00 0.00 0.00 49 1015.0
20260830073753 61 235 0.0 2.0 0.00 0.00 0.00 47 1014.7
20260830073248 60 298 2.0 3.0 0.00 0.00 0.00 49 1014.8
20260830072742 60 263 1.0 3.0 0.00 0.00 0.00 50 1014.7
20260830072238 60 135 0.0 2.0 0.00 0.00 0.00 49 1014.7
20260830071733 60 37 0.0 1.0 0.00 0.00 0.00 49 1014.5
20260830071232 60 284 0.0 2.0 0.00 0.00 0.00 48 1014.5
20260830070725 60 50 0.0 3.0 0.00 0.00 0.00 48 1014.7
20260830070220 60 334 1.0 2.0 0.00 0.00 0.00 49 1014.5
20260830065719 60 277 3.0 4.0 0.00 0.00 0.00 49 1014.4
20260830065214 60 78 3.0 4.0 0.00 0.00 0.00 47 1014.4
20260830064712 61 303 3.0 4.0 0.00 0.00 0.00 46 1014.5
20260830064208 61 274 3.0 4.0 0.00 0.00 0.00 46 1014.5
20260830063702 61 82 1.0 3.0 0.00 0.00 0.00 46 1014.4
20260830063201 61 258 1.0 3.0 0.00 0.00 0.00 47 1014.5
20260830062656 62 320 0.0 2.0 0.00 0.00 0.00 47 1014.4
20260830062150 62 45 3.0 4.0 0.00 0.00 0.00 45 1014.4
20260830061644 63 278 2.0 3.0 0.00 0.00 0.00 44 1014.4
20260830061141 63 80 0.0 2.0 0.00 0.00 0.00 43 1014.4
20260830060638 63 322 0.0 2.0 0.00 0.00 0.00 44 1014.3
20260830060133 63 290 1.0 3.0 0.00 0.00 0.00 44 1014.5
20260830055628 63 296 1.0 1.0 0.00 0.00 0.00 44 1014.5
20260830055125 64 105 0.0 2.0 0.00 0.00 0.00 42 1014.3
20260830054619 64 47 2.0 3.0 0.00 0.00 0.00 43 1014.4
20260830054114 64 269 1.0 3.0 0.00 0.00 0.00 46 1014.4
20260830053610 64 269 0.0 2.0 0.00 0.00 0.00 43 1014.2
20260830053109 64 30 1.0 2.0 0.00 0.00 0.00 41 1014.5
20260830052605 65 129 0.0 3.0 0.00 0.00 0.00 41 1014.5
20260830052100 65 297 0.0 2.0 0.00 0.00 0.00 40 1014.3
20260830051554 65 291 2.0 2.0 0.00 0.00 0.00 41 1014.3
20260830051050 65 309 0.0 1.0 0.00 0.00 0.00 41 1014.2
20260830050544 66 57 3.0 3.0 0.00 0.00 0.00 40 1014.3
20260830050038 66 274 2.0 3.0 0.00 0.00 0.00 40 1014.2
20260830045537 66 282 2.0 2.0 0.00 0.00 0.00 40 1014.3
20260830045033 66 68 3.0 4.0 0.00 0.00 0.00 39 1014.0
20260830044532 67 67 3.0 3.0 0.00 0.00 0.00 38 1014.3
20260830044027 68 245 2.0 4.0 0.00 0.00 0.00 37 1014.1
20260830043523 68 310 0.0 2.0 0.00 0.00 0.00 37 1014.1
20260830043021 68 298 2.0 2.0 0.00 0.00 0.00 37 1014.1
20260830042519 68 171 3.0 3.0 0.00 0.00 0.00 36 1013.9
20260830042014 68 287 1.0 4.0 0.00 0.00 0.00 35 1013.9
20260830041508 69 275 2.0 3.0 0.00 0.00 0.00 35 1013.8
20260830041003 70 193 0.0 1.0 0.00 0.00 0.00 34 1013.7
20260830040458 70 293 0.0 2.0 0.00 0.00 0.00 34 1013.6
20260830035957 70 288 1.0 3.0 0.00 0.00 0.00 33 1013.6
20260830035456 70 301 2.0 3.0 0.00 0.00 0.00 33 1013.4
20260830034952 70 284 1.0 2.0 0.00 0.00 0.00 33 1013.4
20260830034447 71 281 2.0 4.0 0.00 0.00 0.00 33 1013.3
20260830033947 71 42 2.0 2.0 0.00 0.00 0.00 33 1013.3
20260830033442 72 22 0.0 2.0 0.00 0.00 0.00 31 1013.2
20260830032938 73 255 0.0 3.0 0.00 0.00 0.00 30 1013.0
20260830032437 73 289 4.0 6.0 0.00 0.00 0.00 31 1013.1
20260830031932 73 281 3.0 4.0 0.00 0.00 0.00 31 1013.1
20260830031427 74 87 2.0 3.0 0.00 0.00 0.00 31 1012.8
20260830030922 74 272 3.0 5.0 0.00 0.00 0.00 29 1012.8